Flag for U.S.A. Weather past 2 weeks in Sacramento, California, U.S.A.

Now
51 °F

Fog.


Feels Like: 49 °F
Forecast: 45 / 61 °F
Wind: 7 mph from North

Location: Sacramento Executive Airport

Current Time: Jan 28, 2015 at 1:36:59 AM

Latest Report: Jan 28, 2015 at 12:53 AM


Visibility: 4 mi

Pressure: 30.25 "Hg

Humidity: 89%

Dew point: 48 °F

Location of SacramentoLocation

Historic Weather in Sacramento — Graph

°F

Sacramento temperature yesterday

Maximum temperature yesterday: 62 °F (at 1:53 PM)
Minimum temperature yesterday: 48 °F (at 12:53 AM)
Average temperature yesterday: 55 °F

Past Weeks' High & Low Weather Summary

 TemperatureHumidityPressure
High65 °F (Jan 26, 2:53 PM)100% (Jan 15, 1:53 AM)30.40 "Hg (Jan 15, 1:53 AM)
Low38 °F (Jan 14, 6:53 AM)49% (Jan 26, 2:53 PM)29.97 "Hg (Jan 26, 2:53 PM)
Average49 °F87%30.22 "Hg
* Reported Jan 12 11:53 PM — Jan 27 11:53 PM, Sacramento, Weather by CustomWeather, © 2014

Note: Actual official high and low records may vary slightly from our data, if they occured in-between our weather recording intervals... More about our weather records

Advertising

Sacramento weather history for previous 24 hours

 ConditionsComfort  
Time TempWeatherWind HumidityBarometerVisibility
11:53 PM
Jan 27
51 °FFog.5 mph89%30.27 "Hg4 mi
10:53 PM52 °FFog.5 mph89%30.27 "Hg5 mi
9:53 PM52 °FFog.No wind89%30.26 "Hg5 mi
8:53 PM55 °FClear.5 mph87%30.25 "Hg8 mi
7:53 PM56 °FClear.No wind84%30.24 "Hg9 mi
6:53 PM56 °FClear.No wind84%30.23 "Hg10 mi
5:53 PM59 °FClear.No wind78%30.22 "Hg10 mi
4:53 PM61 °FPassing clouds.No wind72%30.22 "Hg10 mi
3:53 PM62 °FSunny.No wind70%30.21 "Hg10 mi
2:53 PM62 °FSunny.3 mph70%30.21 "Hg10 mi
1:53 PM62 °FScattered clouds.3 mph70%30.20 "Hg10 mi
12:53 PM60 °FPassing clouds.No wind72%30.21 "Hg9 mi
11:53 AM57 °FScattered clouds.3 mph78%30.22 "Hg7 mi
10:53 AM56 °FPartly sunny.No wind77%30.23 "Hg6 mi
9:53 AM55 °FSunny.No wind77%30.21 "Hg6 mi
8:53 AM53 °FOvercast.3 mph83%30.19 "Hg5 mi
7:53 AM52 °FPartly sunny.No wind83%30.16 "Hg4 mi
6:53 AM52 °FOvercast.5 mph83%30.14 "Hg6 mi
5:53 AM52 °FOvercast.No wind80%30.12 "Hg6 mi
4:53 AM52 °FClear.3 mph80%30.09 "Hg6 mi
3:53 AM51 °FClear.No wind83%30.08 "Hg7 mi
2:53 AM51 °FClear.3 mph83%30.07 "Hg7 mi
1:53 AM51 °FClear.5 mph83%30.04 "Hg7 mi
Weather by CustomWeather, © 2014

See weather overviewHow to use our weather pages